TimeMST,TemperatureF,Dew PointF,Humidity,Sea Level PressureIn,VisibilityMPH,Wind Direction,Wind SpeedMPH,Gust SpeedMPH,PrecipitationIn,Events,Conditions,WindDirDegrees,DateUTC
12:15 AM,30.2,30.2,100,30.23,5.0,Calm,Calm,-,N/A,Snow,Light Snow,0,2012-12-05 07:15:00
12:35 AM,30.2,30.2,100,30.22,4.0,Calm,Calm,-,N/A,Snow,Light Snow,0,2012-12-05 07:35:00
12:55 AM,30.2,30.2,100,30.21,10.0,Calm,Calm,-,N/A,,Overcast,0,2012-12-05 07:55:00
1:15 AM,30.2,30.2,100,30.21,10.0,WNW,3.5,-,N/A,,Overcast,300,2012-12-05 08:15:00
1:35 AM,30.2,30.2,100,30.19,10.0,Calm,Calm,-,N/A,,Overcast,0,2012-12-05 08:35:00
1:55 AM,30.2,30.2,100,30.19,10.0,Calm,Calm,-,N/A,,Overcast,0,2012-12-05 08:55:00
2:15 AM,30.2,30.2,100,30.19,10.0,Calm,Calm,-,N/A,,Overcast,0,2012-12-05 09:15:00
2:35 AM,30.2,30.2,100,30.19,7.0,Calm,Calm,-,N/A,,Overcast,0,2012-12-05 09:35:00
2:55 AM,32.0,32.0,100,30.18,10.0,ESE,4.6,-,N/A,,Overcast,120,2012-12-05 09:55:00
3:15 AM,32.0,32.0,100,30.18,10.0,East,4.6,-,N/A,,Overcast,90,2012-12-05 10:15:00
3:35 AM,32.0,32.0,100,30.17,10.0,East,4.6,-,N/A,,Overcast,90,2012-12-05 10:35:00
3:55 AM,32.0,32.0,100,30.16,10.0,East,4.6,-,N/A,,Overcast,90,2012-12-05 10:55:00
4:15 AM,32.0,32.0,100,30.15,10.0,ENE,4.6,-,N/A,,Overcast,70,2012-12-05 11:15:00
4:35 AM,32.0,32.0,100,30.14,10.0,Calm,Calm,-,N/A,,Overcast,0,2012-12-05 11:35:00
4:55 AM,32.0,32.0,100,30.13,10.0,Calm,Calm,-,N/A,,Overcast,0,2012-12-05 11:55:00
5:15 AM,32.0,32.0,100,30.13,10.0,Calm,Calm,-,N/A,,Overcast,0,2012-12-05 12:15:00
5:35 AM,32.0,32.0,100,30.13,10.0,NNW,4.6,-,N/A,,Overcast,330,2012-12-05 12:35:00
5:55 AM,32.0,32.0,100,30.11,10.0,Calm,Calm,-,N/A,,Light Drizzle,0,2012-12-05 12:55:00
7:55 AM,32.0,32.0,100,30.09,10.0,ESE,5.8,-,N/A,,Overcast,120,2012-12-05 14:55:00
8:15 AM,32.0,32.0,100,30.09,10.0,ESE,3.5,-,N/A,,Overcast,110,2012-12-05 15:15:00
8:35 AM,32.0,32.0,100,30.09,10.0,Calm,Calm,-,N/A,,Overcast,0,2012-12-05 15:35:00
8:55 AM,33.8,33.8,100,30.09,10.0,Calm,Calm,-,N/A,,Overcast,0,2012-12-05 15:55:00
9:15 AM,33.8,33.8,100,30.09,10.0,Calm,Calm,-,N/A,,Overcast,0,2012-12-05 16:15:00
9:35 AM,33.8,33.8,100,30.08,10.0,Calm,Calm,-,N/A,,Overcast,0,2012-12-05 16:35:00
9:55 AM,35.6,33.8,93,30.09,10.0,Calm,Calm,-,N/A,,Overcast,0,2012-12-05 16:55:00
10:15 AM,35.6,33.8,93,30.09,10.0,Calm,Calm,-,N/A,,Overcast,0,2012-12-05 17:15:00
10:35 AM,35.6,33.8,93,30.08,10.0,ESE,4.6,-,N/A,,Overcast,120,2012-12-05 17:35:00
10:55 AM,35.6,33.8,93,30.08,10.0,ESE,4.6,-,N/A,,Overcast,120,2012-12-05 17:55:00
11:15 AM,35.6,33.8,93,30.07,10.0,ENE,3.5,-,N/A,,Overcast,70,2012-12-05 18:15:00
11:35 AM,37.4,33.8,87,30.06,10.0,Calm,Calm,-,N/A,,Overcast,0,2012-12-05 18:35:00
11:55 AM,37.4,33.8,87,30.05,10.0,East,3.5,-,N/A,,Overcast,90,2012-12-05 18:55:00
12:15 PM,37.4,33.8,87,30.05,10.0,Calm,Calm,-,N/A,,Overcast,0,2012-12-05 19:15:00
12:35 PM,37.4,33.8,87,30.03,10.0,East,5.8,-,N/A,,Overcast,90,2012-12-05 19:35:00
12:55 PM,37.4,33.8,87,30.03,10.0,ESE,5.8,-,N/A,,Overcast,110,2012-12-05 19:55:00
1:15 PM,37.4,33.8,87,30.03,10.0,East,6.9,-,N/A,,Mostly Cloudy,90,2012-12-05 20:15:00
1:35 PM,37.4,33.8,87,30.03,10.0,East,4.6,-,N/A,,Overcast,90,2012-12-05 20:35:00
1:55 PM,37.4,33.8,87,30.03,10.0,ENE,3.5,-,N/A,,Overcast,70,2012-12-05 20:55:00
2:15 PM,37.4,33.8,87,30.03,10.0,NE,3.5,-,N/A,,Drizzle,40,2012-12-05 21:15:00
2:35 PM,37.4,35.6,93,30.03,10.0,Calm,Calm,-,N/A,,Drizzle,0,2012-12-05 21:35:00
2:55 PM,35.6,35.6,100,30.03,10.0,East,4.6,-,N/A,,Overcast,80,2012-12-05 21:55:00
3:15 PM,35.6,35.6,100,30.04,10.0,ENE,3.5,-,N/A,,Mostly Cloudy,70,2012-12-05 22:15:00
3:35 PM,35.6,35.6,100,30.04,10.0,Calm,Calm,-,N/A,,Mostly Cloudy,0,2012-12-05 22:35:00
3:55 PM,37.4,35.6,93,30.05,10.0,Calm,Calm,-,N/A,,Scattered Clouds,0,2012-12-05 22:55:00
4:15 PM,35.6,33.8,93,30.05,10.0,NE,3.5,-,N/A,,Clear,40,2012-12-05 23:15:00
4:35 PM,33.8,33.8,100,30.05,10.0,Calm,Calm,-,N/A,,Clear,0,2012-12-05 23:35:00
4:55 PM,32.0,32.0,100,30.06,10.0,Calm,Calm,-,N/A,,Scattered Clouds,0,2012-12-05 23:55:00
5:15 PM,32.0,32.0,100,30.06,10.0,Calm,Calm,-,N/A,,Scattered Clouds,0,2012-12-06 00:15:00
5:35 PM,30.2,30.2,100,30.06,10.0,WNW,4.6,-,N/A,,Mostly Cloudy,300,2012-12-06 00:35:00
5:55 PM,30.2,30.2,100,30.07,10.0,West,4.6,-,N/A,,Scattered Clouds,280,2012-12-06 00:55:00
6:15 PM,30.2,30.2,100,30.07,10.0,WNW,4.6,-,N/A,,Clear,300,2012-12-06 01:15:00
6:35 PM,30.2,30.2,100,30.06,10.0,Calm,Calm,-,N/A,,Clear,0,2012-12-06 01:35:00
6:55 PM,28.4,28.4,100,30.07,10.0,WNW,4.6,-,N/A,,Scattered Clouds,290,2012-12-06 01:55:00
7:15 PM,30.2,30.2,100,30.07,10.0,West,9.2,-,N/A,,Mostly Cloudy,280,2012-12-06 02:15:00
7:35 PM,32.0,30.2,93,30.08,10.0,WNW,6.9,-,N/A,,Scattered Clouds,290,2012-12-06 02:35:00
7:55 PM,30.2,30.2,100,30.08,10.0,NW,3.5,-,N/A,,Mostly Cloudy,310,2012-12-06 02:55:00
8:15 PM,28.4,28.4,100,30.08,10.0,NNW,6.9,-,N/A,,Mostly Cloudy,330,2012-12-06 03:15:00
8:35 PM,30.2,28.4,93,30.08,10.0,WNW,9.2,-,N/A,,Mostly Cloudy,300,2012-12-06 03:35:00
8:55 PM,28.4,28.4,100,30.07,10.0,West,6.9,-,N/A,,Mostly Cloudy,280,2012-12-06 03:55:00
9:15 PM,28.4,26.6,93,30.07,10.0,WNW,3.5,-,N/A,,Clear,290,2012-12-06 04:15:00
9:35 PM,28.4,26.6,93,30.07,10.0,NW,4.6,-,N/A,,Scattered Clouds,310,2012-12-06 04:35:00
9:55 PM,24.8,24.8,100,30.06,10.0,NW,6.9,-,N/A,,Scattered Clouds,310,2012-12-06 04:55:00
10:15 PM,26.6,26.6,100,30.06,10.0,West,10.4,-,N/A,,Scattered Clouds,280,2012-12-06 05:15:00
10:35 PM,26.6,24.8,93,30.07,10.0,NW,5.8,-,N/A,,Scattered Clouds,320,2012-12-06 05:35:00
10:55 PM,26.6,26.6,100,30.06,10.0,WNW,5.8,-,N/A,,Clear,290,2012-12-06 05:55:00
11:15 PM,26.6,26.6,100,30.07,10.0,West,5.8,-,N/A,,Scattered Clouds,270,2012-12-06 06:15:00
11:35 PM,28.4,28.4,100,30.06,10.0,West,6.9,-,N/A,,Mostly Cloudy,260,2012-12-06 06:35:00
11:55 PM,28.4,26.6,93,30.06,10.0,West,4.6,-,N/A,,Mostly Cloudy,270,2012-12-06 06:55:00